Location: Agadir-Ikarkaouin
(31.1503°N, 9.0246°W)
Time: 03:05:26
(UTC+00:00)

CSL-04 Debris - Pass Details

Date: 18 September 2020
Orbit: 827 x 848 km, 98.9° (Epoch: 23 October)

Event Time Altitude Azimuth Distance (km) Brightness Sun altitude
Rises 19:52:53 0° 172° (S) 3,360 7.1 -16.8°
Reaches altitude 10° 19:55:15 10° 175° (S) 2,427 6.4 -17.3°
Maximum altitude 20:00:35 67° 258° (WSW) 893 4.5 -18.5°
Drops below altitude 10° 20:05:57 10° 341° (NNW) 2,434 7.0 -19.6°
Sets 20:08:20 0° 344° (NNW) 3,370 7.8 -20.1°
